Tacoma, WA

9:48 PM PDT on April 30, 2017 (GMT -0700)
McChord Air Force Base

Weather History for KTCM - January, 2014

Change the Weather History Date:

Saturday, January 25, 2014

  Actual Average Record
Temperature  
Mean Temperature 38 °F -  
Max Temperature 53 °F 45 °F 60 °F (2015)
Min Temperature 24 °F 33 °F 16 °F (2008)
Degree Days  
Heating Degree Days 26    
Moisture  
Dew Point 30 °F    
Average Humidity 94    
Maximum Humidity 100    
Minimum Humidity 57    
Precipitation  
Precipitation 0.00 in - - ()
Sea Level Pressure  
Sea Level Pressure 30.34 in    
Wind  
Wind Speed 0 mph (South)    
Max Wind Speed 6 mph    
Max Gust Speed -    
Visibility 5 miles    
Events Fog    
Averages and records for this station are not official NWS values.
T = Trace of Precipitation, MM = Missing Value Source: NWS Daily Summary

Daily Weather History Graph

Daily Weather History Graph

Search for Another Location

Airport or City:

Trip Planner

Search our weather history database for the weather conditions in past years. The results will help you decide how hot, cold, wet, or windy it might be!

Date:

Astronomy

Jan. 25, 2014 Rise Set
Actual Time 7:43 AM PST 5:01 PM PST
Civil Twilight 7:09 AM PST 5:35 PM PST
Nautical Twilight 6:32 AM PST 6:12 PM PST
Astronomical Twilight 5:56 AM PST 6:48 PM PST
Moon 2:19 AM PST (1/25) 12:06 PM PST (1/25)
Length of Visible Light 10h 25m
Length of Day
9h 18m
Waning Crescent, 33% of the Moon is Illuminated
Jan 25
Waning Crescent
Jan 30
New
Feb 6
First Quarter
Feb 14
Full
Feb 22
Last Quarter

Hourly Weather History & Observations

Time (PST) Temp. Windchill Dew Point Humidity Pressure Visibility Wind Dir Wind Speed Gust Speed Precip Events Conditions
12:13 AM 28.4 °F - 28.4 °F 100% 30.33 in 0.8 mi Calm Calm - N/A   Clear
12:18 AM 28.4 °F - 28.4 °F 100% 30.33 in 0.5 mi Calm Calm - N/A Fog Light Freezing Fog
12:33 AM 28.4 °F - 28.4 °F 100% 30.33 in 0.5 mi Calm Calm - N/A Fog Light Freezing Fog
12:38 AM 28.4 °F - 28.4 °F 100% 30.33 in 0.8 mi Calm Calm - N/A   Clear
12:43 AM 28.4 °F - 28.4 °F 100% 30.33 in 0.5 mi Calm Calm - N/A Fog Light Freezing Fog
12:48 AM 28.4 °F - 28.4 °F 100% 30.33 in 0.5 mi Calm Calm - N/A Fog Light Freezing Fog
12:58 AM 28.4 °F - 28.4 °F 100% 30.35 in 0.5 mi Calm Calm - N/A Fog Light Freezing Fog
1:03 AM 28.4 °F - 28.4 °F 100% 30.33 in 1.0 mi Calm Calm - N/A   Clear
1:08 AM 28.4 °F - 28.4 °F 100% 30.33 in 1.5 mi Calm Calm - N/A   Clear
1:13 AM 28.4 °F - 28.4 °F 100% 30.33 in 1.5 mi Calm Calm - N/A   Clear
1:18 AM 28.4 °F - 26.6 °F 93% 30.33 in 2.5 mi Calm Calm - N/A   Clear
1:23 AM 28.4 °F - 26.6 °F 93% 30.33 in 1.8 mi Calm Calm - N/A   Clear
1:28 AM 28.4 °F - 28.4 °F 100% 30.33 in 1.0 mi Calm Calm - N/A   Clear
1:33 AM 26.6 °F - 26.6 °F 100% 30.33 in 0.8 mi Calm Calm - N/A   Clear
1:38 AM 26.6 °F - 26.6 °F 100% 30.33 in 0.8 mi Calm Calm - N/A   Clear
1:43 AM 26.6 °F - 24.8 °F 93% 30.33 in 2.0 mi Calm Calm - N/A   Clear
1:48 AM 24.8 °F - 24.8 °F 100% 30.33 in 5.0 mi Calm Calm - N/A   Clear
1:53 AM 24.8 °F - 24.8 °F 100% 30.33 in 2.0 mi Calm Calm - N/A   Clear
1:58 AM 25.3 °F - 25.2 °F 99% 30.36 in 2.0 mi Calm Calm - N/A   Clear
2:03 AM 26.6 °F - 26.6 °F 100% 30.34 in 6.0 mi Calm Calm - N/A   Clear
2:58 AM 27.5 °F - 27.1 °F 99% 30.36 in 9.0 mi Calm Calm - N/A   Clear
3:58 AM 26.1 °F - 25.7 °F 99% 30.37 in 4.0 mi Calm Calm - N/A   Clear
4:03 AM 26.6 °F - 26.6 °F 100% 30.35 in 2.0 mi Calm Calm - N/A   Clear
4:13 AM 26.6 °F - 26.6 °F 100% 30.35 in 5.0 mi Calm Calm - N/A   Clear
4:58 AM 27.0 °F - 26.8 °F 99% 30.37 in 7.0 mi Calm Calm - N/A   Clear
5:08 AM 26.6 °F - 26.6 °F 100% 30.34 in 2.5 mi South 2.3 mph - N/A   Clear
5:13 AM 26.6 °F - 24.8 °F 93% 30.35 in 8.0 mi SSE 1.2 mph - N/A   Clear
5:58 AM 25.7 °F 19.0 °F 25.3 °F 99% 30.38 in 10.0 mi SSW 5.8 mph - N/A   Clear
6:58 AM 25.3 °F - 25.2 °F 99% 30.38 in 10.0 mi Calm Calm - N/A   Clear
7:58 AM 26.4 °F - 26.2 °F 99% 30.39 in 6.0 mi East 2.3 mph - N/A   Clear
8:58 AM 28.6 °F 24.8 °F 28.4 °F 99% 30.40 in 10.0 mi SSW 3.5 mph - N/A   Clear
9:58 AM 35.2 °F - 35.1 °F 99% 30.40 in 10.0 mi Calm Calm - N/A   Clear
10:58 AM 39.7 °F - 36.5 °F 88% 30.41 in 10.0 mi Calm Calm - N/A   Clear
11:58 AM 45.7 °F - 35.8 °F 68% 30.39 in 10.0 mi Variable 1.2 mph - N/A   Clear
12:58 PM 50.7 °F - 36.7 °F 59% 30.37 in 10.0 mi Calm Calm - N/A   Clear
1:58 PM 52.7 °F - 39.9 °F 62% 30.36 in 10.0 mi Variable 1.2 mph - N/A   Clear
2:58 PM 53.6 °F - 38.7 °F 57% 30.35 in 10.0 mi Variable 1.2 mph - N/A   Clear
3:58 PM 53.4 °F - 38.5 °F 57% 30.34 in 10.0 mi NNW 2.3 mph - N/A   Clear
4:58 PM 50.0 °F - 37.6 °F 62% 30.33 in 10.0 mi Calm Calm - N/A   Clear
5:58 PM 38.8 °F - 36.7 °F 92% 30.31 in 10.0 mi Calm Calm - N/A   Clear
6:58 PM 36.0 °F - 35.6 °F 99% 30.32 in 10.0 mi Calm Calm - N/A   Clear
7:58 PM 34.5 °F - 34.3 °F 99% 30.30 in 10.0 mi SSE 2.3 mph - N/A   Clear
8:58 PM 30.6 °F - 30.4 °F 99% 30.30 in 10.0 mi South 2.3 mph - N/A   Clear
9:43 PM 32.0 °F - 30.2 °F 93% 30.27 in 2.5 mi SSE 2.3 mph - N/A   Clear
9:48 PM 30.2 °F - 30.2 °F 100% 30.27 in 2.5 mi SE 1.2 mph - N/A   Clear
9:53 PM 32.0 °F - 32.0 °F 100% 30.28 in 4.0 mi South 2.3 mph - N/A   Clear
9:58 PM 30.7 °F - 30.6 °F 99% 30.30 in 3.0 mi South 2.3 mph - N/A   Clear
10:58 PM 29.7 °F - 29.5 °F 99% 30.30 in 10.0 mi Calm Calm - N/A   Clear
11:58 PM 29.3 °F - 29.1 °F 99% 30.29 in 3.0 mi SSW 2.3 mph - N/A   Clear